Terminal Aerodrome Forecast
Issued by NWS

Home | Current Version | Previous Version | Text Only | Print | Product List | Glossary On
Versions: 1 2 3 4 5 6 7 8 9 10 11 12 13 14 15 16 17 18 19 20 21 22 23 24 25 26 27 28 29 30 31 32 33 34 35 36 37 38 39 40 41 42 43 44 45 46 47 48 49 50
000
FTUS41 KCTP 011722
TAFBFD
TAF
KBFD 011722Z 0118/0218 29006KT 6SM HZ SCT035
     FM020400 00000KT 4SM BR SCT004
     FM020900 00000KT 3/4SM BR BKN002
     FM021300 00000KT 4SM BR SCT004
     FM021400 29005KT 6SM HZ VCSH SCT025 BKN035=

USA.gov is the U.S. government's official web portal to all federal, state and local government web resources and services.